Date String (YYYY-MM-DD hh:mm:ss) UTC,Instrument flags,Ambient pressure (hPa),Sample flow (lpm),Bypass flow (lpm),Sample temperature (°C),Ambient temperature (°C),ASC tube jacket temperature (°C),LED temperature (°C),Box temperature (°C),Sample RH (%),Span deviation,Mass concentration (μg/m³),Mass concentration (μg/m³),Mass concentration (μg/m³)
DateTimeUTC,F1_M11,P_M11,Q1_M11,Q2_M11,T1_M11,T2_M11,T3_M11,T4_M11,T5_M11,U1_M11,ZSPAN_M11,X0_M11,X2_M11,X1_M11
2022-12-27 02:00:00,,0825.5,4.97,0.00,22.3,20.5,00.0,31.3,23.9,16.6,0000.0,0004.05,0002.96,0002.78
2022-12-27 02:01:00,,0825.4,4.96,0.00,22.3,20.5,00.0,31.3,23.9,16.5,0000.0,0003.67,0002.54,0002.37
2022-12-27 02:02:00,,0825.4,4.99,0.00,22.2,20.4,00.0,31.3,23.8,16.6,0000.0,0002.77,0002.14,0002.02
2022-12-27 02:03:00,,0825.4,5.04,0.00,22.2,20.3,00.0,31.3,23.8,16.7,0000.0,0002.09,0001.76,0001.67
2022-12-27 02:04:00,,0825.5,5.01,0.00,22.2,20.3,00.0,31.3,23.7,16.7,0000.0,0001.70,0001.40,0001.34
2022-12-27 02:05:00,,0825.4,4.96,0.00,22.1,20.3,00.0,31.3,23.7,16.7,0000.0,0001.82,0001.18,0001.09
2022-12-27 02:06:00,,0825.4,5.04,0.00,22.1,20.2,00.0,31.2,23.6,16.6,0000.0,0002.13,0001.04,0000.89
2022-12-27 02:07:00,,0825.4,5.03,0.00,22.1,20.3,00.0,31.2,23.6,16.8,0000.0,0002.04,0000.93,0000.78
2022-12-27 02:08:00,,0825.4,5.01,0.00,22.1,20.3,00.0,31.2,23.6,17.0,0000.0,0001.90,0000.83,0000.68
2022-12-27 02:09:00,,0825.4,4.98,0.00,22.1,20.5,00.0,31.2,23.7,16.7,0000.0,0001.81,0000.76,0000.61
2022-12-27 02:10:00,,0825.4,4.99,0.00,22.1,20.6,00.0,31.1,23.7,16.9,0000.0,0001.67,0000.70,0000.55
2022-12-27 02:11:00,,0825.4,5.03,0.00,22.1,20.6,00.0,31.1,23.7,16.7,0000.0,0001.58,0000.63,0000.50
2022-12-27 02:12:00,,0825.4,5.02,0.00,22.1,20.7,00.0,31.1,23.8,16.7,0000.0,0001.53,0000.59,0000.47
2022-12-27 02:13:00,,0825.4,4.97,0.00,22.1,20.9,00.0,31.1,23.8,16.9,0000.0,0001.52,0000.57,0000.45
2022-12-27 02:14:00,,0825.4,4.97,0.00,22.1,20.9,00.0,31.1,23.9,16.9,0000.0,0001.49,0000.54,0000.41
2022-12-27 02:15:00,,0825.4,5.02,0.00,22.1,21.0,00.0,31.1,23.9,16.9,0000.0,0001.52,0000.53,0000.40
2022-12-27 02:16:00,,0825.4,5.03,0.00,22.2,21.0,00.0,31.1,23.9,16.9,0000.0,0001.04,0000.50,0000.39
2022-12-27 02:17:00,,0825.3,4.99,0.00,22.2,21.1,00.0,31.1,24.0,16.8,0000.0,0000.63,0000.45,0000.39
2022-12-27 02:18:00,,0825.2,4.98,0.00,22.2,21.1,00.0,31.1,24.0,16.8,0000.0,0000.62,0000.45,0000.39
2022-12-27 02:19:00,,0825.2,4.99,0.00,22.2,21.1,00.0,31.1,24.1,16.7,0000.0,0000.63,0000.44,0000.39
2022-12-27 02:20:00,,0825.2,5.03,0.00,22.3,21.1,00.0,31.1,24.1,16.6,0000.0,0000.60,0000.45,0000.40
2022-12-27 02:21:00,,0825.2,5.00,0.00,22.3,21.1,00.0,31.1,24.1,16.6,0000.0,0000.63,0000.48,0000.42
2022-12-27 02:22:00,,0825.2,4.98,0.00,22.3,21.2,00.0,31.2,24.1,16.6,0000.0,0000.74,0000.51,0000.44
2022-12-27 02:23:00,,0825.1,4.97,0.00,22.3,21.2,00.0,31.2,24.1,16.7,0000.0,0000.85,0000.52,0000.44
2022-12-27 02:24:00,,0825.1,5.01,0.00,22.3,21.2,00.0,31.2,24.1,16.5,0000.0,0000.86,0000.52,0000.44
2022-12-27 02:25:00,,0825.1,5.02,0.00,22.3,21.2,00.0,31.2,24.1,16.4,0000.0,0000.89,0000.53,0000.43
2022-12-27 02:26:00,,0825.1,5.00,0.00,22.3,21.2,00.0,31.2,24.1,16.4,0000.0,0000.87,0000.51,0000.41
2022-12-27 02:27:00,,0825.0,4.97,0.00,22.3,21.2,00.0,31.2,24.1,16.3,0000.0,0000.86,0000.49,0000.39
2022-12-27 02:28:00,,0824.9,5.00,0.00,22.3,21.2,00.0,31.2,24.1,16.3,0000.0,0000.86,0000.48,0000.38
2022-12-27 02:29:00,,0824.9,5.03,0.00,22.4,21.2,00.0,31.2,24.1,16.2,0000.0,0000.84,0000.46,0000.35
2022-12-27 02:30:00,,0825.1,5.02,0.00,22.4,21.2,00.0,31.2,24.1,16.4,0000.0,0000.81,0000.44,0000.33
2022-12-27 02:31:00,,0825.1,4.99,0.00,22.3,21.2,00.0,31.2,24.0,16.4,0000.0,0000.78,0000.41,0000.30
2022-12-27 02:32:00,,0825.1,4.97,0.00,22.3,21.1,00.0,31.2,24.0,16.5,0000.0,0000.75,0000.38,0000.28
2022-12-27 02:33:00,,0825.1,5.01,0.00,22.3,21.0,00.0,31.2,24.0,16.6,0000.0,0000.69,0000.36,0000.27
2022-12-27 02:34:00,,0825.1,5.03,0.00,22.3,20.8,00.0,31.2,23.9,16.6,0000.0,0000.56,0000.35,0000.25
2022-12-27 02:35:00,,0825.1,4.99,0.00,22.3,20.7,00.0,31.2,23.9,16.8,0000.0,0000.54,0000.34,0000.24
2022-12-27 02:36:00,,0825.1,4.98,0.00,22.2,20.6,00.0,31.2,23.9,16.7,0000.0,0000.49,0000.32,0000.24
2022-12-27 02:37:00,,0825.1,4.97,0.00,22.2,20.6,00.0,31.2,23.9,17.3,0000.0,0000.56,0000.39,0000.31
2022-12-27 02:38:00,,0825.2,5.01,0.00,22.2,20.6,00.0,31.2,23.9,18.1,0000.0,0000.99,0000.81,0000.69
2022-12-27 02:39:00,,0825.3,5.03,0.00,22.2,20.7,00.0,31.2,23.9,18.3,0000.0,0001.68,0001.34,0001.20
2022-12-27 02:40:00,,0825.1,5.00,0.00,22.2,20.8,00.0,31.2,24.0,18.3,0000.0,0002.29,0001.87,0001.70
2022-12-27 02:41:00,,0825.2,4.98,0.00,22.2,20.9,00.0,31.2,24.0,18.0,0000.0,0002.81,0002.36,0002.17
2022-12-27 02:42:00,,0825.2,4.98,0.00,22.2,20.9,00.0,31.2,24.0,17.5,0000.0,0003.15,0002.67,0002.46
2022-12-27 02:43:00,,0825.1,5.01,0.00,22.2,21.0,00.0,31.2,24.0,17.6,0000.0,0003.52,0003.00,0002.77
2022-12-27 02:44:00,,0825.1,5.03,0.00,22.3,21.0,00.0,31.2,24.1,17.7,0000.0,0003.83,0003.23,0003.10
2022-12-27 02:45:00,,0825.0,5.01,0.00,22.3,20.9,00.0,31.2,24.0,17.8,0000.0,0004.12,0003.42,0003.31
2022-12-27 02:46:00,,0825.2,4.97,0.00,22.3,21.0,00.0,31.2,24.0,18.2,0000.0,0004.72,0003.71,0003.59
2022-12-27 02:47:00,,0825.2,4.99,0.00,22.3,21.1,00.0,31.2,24.1,18.2,0000.0,0005.24,0004.01,0003.89
2022-12-27 02:48:00,,0824.8,5.02,0.00,22.3,21.2,00.0,31.2,24.1,17.9,0000.0,0005.69,0004.25,0004.11
2022-12-27 02:49:00,,0825.2,5.02,0.00,22.3,21.0,00.0,31.2,24.1,17.8,0000.0,0005.72,0004.25,0004.11
2022-12-27 02:50:00,,0825.1,5.01,0.00,22.3,21.0,00.0,31.2,24.1,17.9,0000.0,0005.67,0004.21,0004.07
2022-12-27 02:51:00,,0825.0,4.96,0.00,22.3,21.0,00.0,31.2,24.1,17.9,0000.0,0005.59,0004.19,0004.04
2022-12-27 02:52:00,,0825.1,5.00,0.00,22.3,21.0,00.0,31.2,24.1,17.8,0000.0,0005.52,0004.16,0004.01
2022-12-27 02:53:00,,0825.1,5.02,0.00,22.3,21.1,00.0,31.2,24.2,17.7,0000.0,0005.57,0004.22,0004.07
2022-12-27 02:54:00,,0825.0,5.01,0.00,22.3,21.1,00.0,31.2,24.2,17.7,0000.0,0005.74,0004.31,0004.13
2022-12-27 02:55:00,,0824.9,4.95,0.00,22.3,21.1,00.0,31.2,24.2,17.9,0000.0,0006.78,0004.38,0004.18
2022-12-27 02:56:00,,0824.9,5.01,0.00,22.3,21.0,00.0,31.2,24.2,17.4,0000.0,0007.30,0004.39,0004.18
2022-12-27 02:57:00,,0824.7,5.04,0.00,22.3,21.0,00.0,31.2,24.1,17.1,0000.0,0006.92,0004.23,0004.04
2022-12-27 02:58:00,,0824.6,4.99,0.00,22.3,20.9,00.0,31.2,24.1,17.0,0000.0,0006.60,0004.05,0003.86
2022-12-27 02:59:00,,0824.7,4.96,0.00,22.3,20.7,00.0,31.2,24.0,16.9,0000.0,0006.42,0003.87,0003.70
